Regional Weather Roundup
Issued by NWS

Home | Current Version | Previous Version | Graphics & Text | Print | Product List | Glossary On
Versions: 1 2 3 4 5 6 7 8 9 10 11 12 13 14 15 16 17 18 19 20 21 22 23 24 25 26 27 28 29 30 31 32 33 34 35 36 37 38 39 40 41 42 43 44 45 46 47 48 49 50
000
ASUS43 KLMK 260102
RWRKY
KENTUCKY REGIONAL WEATHER ROUNDUP
NATIONAL WEATHER SERVICE LOUISVILLE KY
900 PM EDT TUE APR 25 2017

NOTE "FAIR" INDICATES FEW OR NO CLOUDS BELOW 12,000 FEET
WITH NO SIGNIFICANT WEATHER AND/OR OBSTRUCTIONS TO VISIBILITY.

KYZ001>023-026-027-061>063-070>075-260200-
WESTERN AND SOUTH CENTRAL KENTUCKY

CITY           SKY/WX    TMP DP  RH WIND       PRES   REMARKS
PADUCAH        CLEAR     72  52  49 SE9       29.58S
HENDERSON      PTCLDY    70  57  63 SE9       29.61F
OWENSBORO      PTCLDY    70  58  65 S9        29.63F
HOPKINSVILLE   CLEAR     72  56  57 SE6       29.64S
BOWLING GREEN  PTCLDY    68  57  68 SE6       29.68S
GLASGOW        NOT AVBL
$$

KYZ024-025-028>034-038-045-046-053-260200-
NORTH CENTRAL KENTUCKY

CITY           SKY/WX    TMP DP  RH WIND       PRES   REMARKS
LOUISVILLE/SDF PTCLDY    72  56  57 SE8       29.66S
LOUISVILLE/LOU CLOUDY    71  58  63 SE3       29.67S
FORT KNOX      CLEAR     68  56  65 SE8       29.65F
$$

KYZ035>037-039>044-047>052-055>060-089>105-260200-
NORTHEAST KENTUCKY

CITY           SKY/WX    TMP DP  RH WIND       PRES   REMARKS
LEXINGTON      CLEAR     66  56  70 S6        29.72R
COVINGTON      PTCLDY    65  57  75 S9        29.68S
FRANKFORT      CLEAR     68  54  60 S5        29.69S
$$

KYZ054-064>069-076>088-106>120-260200-
SOUTHEAST KENTUCKY

CITY           SKY/WX    TMP DP  RH WIND       PRES   REMARKS
JACKSON        CLEAR     67  55  65 S5        29.74R
LONDON         CLEAR     64  55  72 CALM      29.73S
SOMERSET       CLEAR     63  52  67 CALM      29.74F
MIDDLESBORO    PTCLDY    63  59  88 CALM      29.75S
MONTICELLO     CLEAR     59  55  87 CALM      29.75R
$$





USA.gov is the U.S. government's official web portal to all federal, state and local government web resources and services.